When you browse on this site, cookies collect data to enhance your experience and personalize the content and advertising you see.
Visit our Privacy Policy to learn more. By continuing to use the site, you agree to this use of cookies and data.
  • In Latvia
  • List of Countries
  • For 7 days
  • Water Temperature
  • Satellite Maps
  • Weather Map
  • Weather Widgets
  • user-avatar
    Login

    Hourly Weather Lezhe

    Today, 27 March, Wednesday

    Time Temperature Precipitation Wind Pressure Humidity
    00:00 +7°C° 0 mm 5 mps 739 mmHg 54%
    01:00 +7°C° 0 mm 5 mps 739 mmHg 54%
    02:00 +7°C° 0 mm 5 mps 739 mmHg 55%
    03:00 +6°C° 0 mm 5 mps 739 mmHg 56%
    04:00 +6°C° 0 mm 5 mps 740 mmHg 56%
    05:00 +6°C° 0 mm 5 mps 740 mmHg 55%
    06:00 +7°C° 0 mm 5 mps 740 mmHg 54%
    07:00 +7°C° 0 mm 5 mps 740 mmHg 52%
    08:00 +9°C° 0 mm 5 mps 740 mmHg 48%
    09:00 +12°C° 0 mm 5 mps 740 mmHg 44%
    10:00 +13°C° 0 mm 5 mps 741 mmHg 40%
    11:00 +14°C° 0 mm 5 mps 740 mmHg 38%
    12:00 +15°C° 0 mm 5 mps 740 mmHg 37%
    13:00 +16°C° 0 mm 5 mps 740 mmHg 36%
    14:00 +16°C° 0 mm 5 mps 740 mmHg 36%
    15:00 +15°C° 0 mm 5 mps 740 mmHg 37%
    16:00 +15°C° 0 mm 5 mps 739 mmHg 37%
    17:00 +14°C° 0 mm 5 mps 740 mmHg 38%
    18:00 +13°C° 0 mm 5 mps 740 mmHg 39%
    19:00 +10°C° 0 mm 5 mps 741 mmHg 41%
    20:00 +10°C° 0 mm 5 mps 741 mmHg 42%
    21:00 +9°C° 0 mm 5 mps 741 mmHg 44%
    22:00 +8°C° 0 mm 5 mps 741 mmHg 46%
    23:00 +8°C° 0 mm 6 mps 742 mmHg 48%

    Tomorrow, 28 March, Thursday

    Time Temperature Precipitation Wind Pressure Humidity
    00:00 +7°C° 0 mm 6 mps 742 mmHg 50%
    01:00 +7°C° 0 mm 6 mps 742 mmHg 52%
    02:00 +7°C° 0 mm 6 mps 742 mmHg 52%
    03:00 +5°C° 0 mm 6 mps 741 mmHg 52%
    04:00 +5°C° 0 mm 6 mps 741 mmHg 52%
    05:00 +5°C° 0 mm 6 mps 741 mmHg 49%
    06:00 +5°C° 0 mm 6 mps 741 mmHg 46%
    07:00 +7°C° 0 mm 6 mps 741 mmHg 43%
    08:00 +8°C° 0 mm 6 mps 741 mmHg 39%
    09:00 +10°C° 0 mm 6 mps 741 mmHg 35%
    10:00 +13°C° 0 mm 6 mps 741 mmHg 32%
    11:00 +13°C° 0 mm 6 mps 741 mmHg 31%
    12:00 +14°C° 0 mm 7 mps 741 mmHg 31%
    13:00 +15°C° 0 mm 7 mps 741 mmHg 31%
    14:00 +15°C° 0 mm 7 mps 741 mmHg 32%
    15:00 +15°C° 0 mm 7 mps 740 mmHg 33%
    16:00 +14°C° 0 mm 7 mps 740 mmHg 34%
    17:00 +12°C° 0 mm 7 mps 741 mmHg 38%
    18:00 +11°C° 0 mm 7 mps 741 mmHg 41%
    19:00 +9°C° 0 mm 7 mps 741 mmHg 45%
    20:00 +9°C° 0 mm 7 mps 742 mmHg 46%
    21:00 +8°C° 0 mm 6 mps 742 mmHg 47%
    22:00 +7°C° 0 mm 6 mps 743 mmHg 48%
    23:00 +7°C° 0 mm 6 mps 743 mmHg 49%

    Day after tomorrow, 29 March, Friday

    Time Temperature Precipitation Wind Pressure Humidity
    00:00 +6°C° 0 mm 5 mps 743 mmHg 50%
    01:00 +6°C° 0 mm 5 mps 743 mmHg 51%
    02:00 +6°C° 0 mm 5 mps 743 mmHg 52%
    03:00 +5°C° 0 mm 5 mps 743 mmHg 52%
    04:00 +5°C° 0 mm 5 mps 743 mmHg 53%
    05:00 +5°C° 0 mm 5 mps 743 mmHg 51%
    06:00 +6°C° 0 mm 5 mps 744 mmHg 49%
    07:00 +7°C° 0 mm 5 mps 744 mmHg 48%
    08:00 +8°C° 0 mm 5 mps 744 mmHg 43%
    09:00 +10°C° 0 mm 5 mps 744 mmHg 38%
    10:00 +13°C° 0 mm 6 mps 744 mmHg 33%
    11:00 +13°C° 0 mm 6 mps 743 mmHg 31%
    12:00 +14°C° 0 mm 6 mps 743 mmHg 30%
    13:00 +15°C° 0 mm 6 mps 743 mmHg 29%
    14:00 +15°C° 0 mm 6 mps 743 mmHg 30%
    15:00 +15°C° 0 mm 6 mps 742 mmHg 30%
    16:00 +14°C° 0 mm 6 mps 742 mmHg 31%
    17:00 +13°C° 0 mm 5 mps 742 mmHg 35%
    18:00 +11°C° 0 mm 4 mps 743 mmHg 39%
    19:00 +10°C° 0 mm 4 mps 743 mmHg 43%
    20:00 +8°C° 0 mm 4 mps 743 mmHg 46%
    21:00 +7°C° 0 mm 4 mps 743 mmHg 49%
    22:00 +7°C° 0 mm 4 mps 744 mmHg 51%
    23:00 +6°C° 0 mm 4 mps 744 mmHg 52%

    30 March, Saturday

    Time Temperature Precipitation Wind Pressure Humidity
    00:00 +6°C° 0 mm 4 mps 744 mmHg 54%
    01:00 +5°C° 0 mm 4 mps 744 mmHg 55%
    02:00 +5°C° 0 mm 4 mps 744 mmHg 56%
    03:00 +5°C° 0 mm 4 mps 743 mmHg 56%
    04:00 +5°C° 0 mm 4 mps 743 mmHg 57%
    05:00 +6°C° 0 mm 4 mps 743 mmHg 55%
    06:00 +6°C° 0 mm 4 mps 743 mmHg 54%
    07:00 +7°C° 0 mm 4 mps 743 mmHg 53%
    08:00 +10°C° 0 mm 4 mps 743 mmHg 47%
    09:00 +10°C° 0 mm 5 mps 743 mmHg 42%
    10:00 +13°C° 0 mm 5 mps 743 mmHg 36%
    11:00 +14°C° 0 mm 5 mps 742 mmHg 34%
    12:00 +15°C° 0 mm 5 mps 742 mmHg 32%
    13:00 +16°C° 0 mm 5 mps 741 mmHg 30%
    14:00 +16°C° 0 mm 5 mps 741 mmHg 31%
    15:00 +16°C° 0 mm 5 mps 740 mmHg 32%
    16:00 +16°C° 0 mm 5 mps 740 mmHg 33%
    17:00 +14°C° 0 mm 4 mps 740 mmHg 39%
    18:00 +12°C° 0 mm 4 mps 741 mmHg 45%
    19:00 +11°C° 0 mm 3 mps 741 mmHg 51%
    20:00 +10°C° 0 mm 3 mps 741 mmHg 52%
    21:00 +9°C° 0 mm 3 mps 741 mmHg 52%
    22:00 +9°C° 0 mm 3 mps 741 mmHg 52%
    23:00 +8°C° 0 mm 3 mps 741 mmHg 54%

    31 March, Sunday

    Time Temperature Precipitation Wind Pressure Humidity
    00:00 +8°C° 0 mm 3 mps 741 mmHg 56%
    01:00 +8°C° 0 mm 3 mps 740 mmHg 57%
    02:00 +7°C° 0 mm 3 mps 740 mmHg 58%
    03:00 +7°C° 0 mm 3 mps 740 mmHg 58%
    04:00 +7°C° 0 mm 3 mps 740 mmHg 58%
    05:00 +8°C° 0 mm 3 mps 740 mmHg 56%
    06:00 +9°C° 0 mm 3 mps 740 mmHg 54%
    07:00 +9°C° 0 mm 3 mps 740 mmHg 52%
    08:00 +12°C° 0 mm 3 mps 739 mmHg 47%
    09:00 +15°C° 0 mm 2 mps 739 mmHg 41%
    10:00 +17°C° 0 mm 2 mps 739 mmHg 36%
    11:00 +18°C° 0 mm 3 mps 738 mmHg 35%
    12:00 +19°C° 0 mm 3 mps 738 mmHg 33%
    13:00 +19°C° 0 mm 3 mps 737 mmHg 31%
    14:00 +19°C° 0 mm 3 mps 737 mmHg 34%
    15:00 +18°C° 0 mm 4 mps 736 mmHg 37%
    16:00 +18°C° 0 mm 4 mps 736 mmHg 40%
    17:00 +16°C° 0 mm 3 mps 736 mmHg 48%
    18:00 +14°C° 0 mm 2 mps 736 mmHg 56%
    19:00 +12°C° 0 mm 1 mps 736 mmHg 65%
    20:00 +12°C° 0 mm 1 mps 737 mmHg 63%
    21:00 +12°C° 0 mm 1 mps 737 mmHg 62%
    22:00 +11°C° 0 mm 1 mps 737 mmHg 60%
    23:00 +11°C° 0 mm 1 mps 737 mmHg 59%

    1 April, Monday

    Time Temperature Precipitation Wind Pressure Humidity
    00:00 +11°C° 0 mm 1 mps 737 mmHg 58%
    01:00 +10°C° 0 mm 1 mps 737 mmHg 57%
    02:00 +10°C° 0 mm 1 mps 737 mmHg 57%
    03:00 +10°C° 0 mm 1 mps 737 mmHg 57%
    04:00 +10°C° 0 mm 1 mps 737 mmHg 57%
    05:00 +10°C° 0 mm 1 mps 737 mmHg 56%
    06:00 +11°C° 0 mm 1 mps 737 mmHg 55%
    07:00 +12°C° 0 mm 1 mps 737 mmHg 53%
    08:00 +14°C° 0 mm 1 mps 737 mmHg 47%
    09:00 +16°C° 0 mm 1 mps 737 mmHg 41%
    10:00 +19°C° 0 mm 1 mps 737 mmHg 35%
    11:00 +19°C° 0 mm 2 mps 737 mmHg 34%
    12:00 +20°C° 0 mm 2 mps 736 mmHg 33%
    13:00 +21°C° 0 mm 3 mps 736 mmHg 32%
    14:00 +20°C° 0 mm 3 mps 736 mmHg 35%
    15:00 +19°C° 0 mm 3 mps 735 mmHg 38%
    16:00 +19°C° 0 mm 3 mps 735 mmHg 42%
    17:00 +17°C° 0 mm 2 mps 735 mmHg 49%
    18:00 +15°C° 0 mm 1 mps 736 mmHg 57%
    19:00 +13°C° 0 mm 1 mps 736 mmHg 64%
    20:00 +13°C° 0 mm 1 mps 736 mmHg 62%
    21:00 +13°C° 0 mm 1 mps 737 mmHg 60%
    22:00 +12°C° 0 mm 2 mps 737 mmHg 58%
    23:00 +12°C° 0 mm 2 mps 737 mmHg 59%
    Show more